KD8ZVC Weather Reports


Display with metric or nautical units.
time (UTC)temp
F
wind
direction
speed
MPH
gust
MPH
rain 1hr
in
rain 24hr
in
rain mn
in
humidity
%
barometer
mb
20260508233503 81 119 0.0 1.0 0.00 0.00 0.00 41 1009.3
20260508232503 81 149 0.0 1.0 0.00 0.00 0.00 39 1009.4
20260508232006 81 136 0.0 1.0 0.00 0.00 0.00 39 1009.4
20260508231503 81 145 0.0 1.0 0.00 0.00 0.00 39 1009.4
20260508231003 81 146 0.0 1.0 0.00 0.00 0.00 41 1009.4
20260508230503 81 264 0.0 1.0 0.00 0.00 0.00 41 1009.5
20260508230005 80 124 0.0 1.0 0.00 0.00 0.00 38 1009.6
20260508225503 80 233 0.0 1.0 0.00 0.00 0.00 40 1009.6
20260508225004 79 216 0.0 2.0 0.00 0.00 0.00 41 1009.6
20260508224503 79 271 0.0 2.0 0.00 0.00 0.00 43 1009.7
20260508224003 79 143 0.0 2.0 0.00 0.00 0.00 41 1009.8
20260508223504 79 228 0.0 1.0 0.00 0.00 0.00 45 1009.9
20260508222503 78 193 0.0 1.0 0.00 0.00 0.00 48 1010.0
20260508221004 77 115 0.0 2.0 0.00 0.00 0.00 46 1010.2
20260508220503 77 131 0.0 2.0 0.00 0.00 0.00 48 1010.3
20260508220004 77 129 0.0 2.0 0.00 0.00 0.00 46 1010.2
20260508215503 77 129 0.0 1.0 0.00 0.00 0.00 46 1010.4
20260508215004 77 129 0.0 1.0 0.00 0.00 0.00 45 1010.5
20260508214503 76 139 0.0 3.0 0.00 0.00 0.00 47 1010.4
20260508214004 76 134 1.0 4.0 0.00 0.00 0.00 50 1010.7
20260508213504 76 158 1.0 4.0 0.00 0.00 0.00 47 1010.7
20260508213005 76 276 1.0 2.0 0.00 0.00 0.00 48 1010.7
20260508212503 77 131 1.0 3.0 0.00 0.00 0.00 46 1010.8
20260508211004 78 120 1.0 4.0 0.00 0.00 0.00 47 1010.8
20260508210503 79 266 1.0 2.0 0.00 0.00 0.00 50 1010.8
20260508210005 79 115 0.0 4.0 0.00 0.00 0.00 47 1010.8
20260508205503 78 139 0.0 3.0 0.00 0.00 0.00 48 1010.8
20260508204003 79 131 1.0 3.0 0.00 0.00 0.00 46 1010.8
20260508203504 80 243 1.0 2.0 0.00 0.00 0.00 49 1010.7
20260508203004 80 283 1.0 3.0 0.00 0.00 0.00 50 1010.9
20260508202503 80 225 1.0 3.0 0.00 0.00 0.00 50 1010.9
20260508202004 80 256 0.0 2.0 0.00 0.00 0.00 53 1010.9
20260508201003 79 166 1.0 3.0 0.00 0.00 0.00 53 1010.9
20260508200504 80 271 0.0 3.0 0.00 0.00 0.00 53 1011.0
20260508200005 80 126 0.0 2.0 0.00 0.00 0.00 55 1011.1
20260508195002 79 116 0.0 2.0 0.00 0.00 0.00 57 1010.9
20260508194503 79 131 1.0 2.0 0.00 0.00 0.00 57 1011.1
20260508194004 79 100 1.0 2.0 0.00 0.00 0.00 54 1011.1
20260508193002 79 236 1.0 5.0 0.00 0.00 0.00 54 1011.1
20260508192503 80 129 1.0 2.0 0.00 0.00 0.00 55 1011.1
20260508192002 81 152 0.0 2.0 0.00 0.00 0.00 54 1011.1
20260508191502 81 269 0.0 2.0 0.00 0.00 0.00 53 1011.1
20260508191009 81 212 0.0 2.0 0.00 0.00 0.00 54 1011.1
20260508190502 81 228 0.0 2.0 0.00 0.00 0.00 54 1011.1
20260508185503 80 281 0.0 2.0 0.00 0.00 0.00 51 1011.1
20260508185002 81 124 0.0 2.0 0.00 0.00 0.00 47 1011.1
20260508184502 81 217 0.0 2.0 0.00 0.00 0.00 40 1011.1
20260508184003 80 262 1.0 2.0 0.00 0.00 0.00 37 1011.1
20260508183002 80 200 0.0 0.0 0.00 0.00 0.00 38 1011.1
20260508182503 79 198 0.0 1.0 0.00 0.00 0.00 44 1011.1
20260508182002 78 246 0.0 1.0 0.00 0.00 0.00 40 1011.1
20260508181501 78 126 0.0 1.0 0.00 0.00 0.00 40 1011.1
20260508181003 77 259 0.0 1.0 0.00 0.00 0.00 44 1011.2
20260508180501 76 151 0.0 1.0 0.00 0.00 0.00 45 1011.2
20260508180004 75 274 0.0 1.0 0.00 0.00 0.00 48 1011.1
20260508175503 74 276 0.0 1.0 0.00 0.00 0.00 46 1011.2
20260508175002 73 245 0.0 2.0 0.00 0.00 0.00 47 1011.2
20260508174501 73 219 0.0 2.0 0.00 0.00 0.00 45 1011.2
20260508174004 73 227 0.0 1.0 0.00 0.00 0.00 50 1011.1
20260508173501 72 139 0.0 1.0 0.00 0.00 0.00 48 1011.2
20260508173002 73 229 0.0 1.0 0.00 0.00 0.00 48 1011.3
20260508172503 73 257 0.0 1.0 0.00 0.00 0.00 47 1011.2
20260508172002 73 186 0.0 0.0 0.00 0.00 0.00 48 1011.2
20260508171501 72 185 0.0 0.0 0.00 0.00 0.00 47 1011.3
20260508171002 72 186 0.0 1.0 0.00 0.00 0.00 49 1011.2
20260508170005 70 261 0.0 2.0 0.00 0.00 0.00 51 1011.2
20260508165503 69 259 0.0 2.0 0.00 0.00 0.00 53 1011.2
20260508164502 67 259 0.0 1.0 0.00 0.00 0.00 58 1010.9
20260508164003 65 248 0.0 0.0 0.00 0.00 0.00 59 1010.9
20260508163002 64 248 0.0 0.0 0.00 0.00 0.00 60 1011.0
20260508162505 63 248 0.0 0.0 0.00 0.00 0.00 62 1011.0
20260508162002 63 248 0.0 1.0 0.00 0.00 0.00 65 1011.1
20260508161501 63 249 0.0 1.0 0.00 0.00 0.00 63 1011.0
20260508161004 62 170 0.0 0.0 0.00 0.00 0.00 66 1011.0
20260508160501 62 169 0.0 0.0 0.00 0.00 0.00 67 1011.0
20260508160005 61 170 0.0 0.0 0.00 0.00 0.00 67 1011.0
20260508155002 61 169 0.0 0.0 0.00 0.00 0.00 66 1011.0
20260508154501 61 170 0.0 0.0 0.00 0.00 0.00 67 1011.1
20260508154003 60 170 0.0 0.0 0.00 0.00 0.00 65 1011.0
20260508153502 60 170 0.0 0.0 0.00 0.00 0.00 65 1011.0
20260508153005 60 170 0.0 0.0 0.00 0.00 0.00 65 1010.9
20260508151502 59 170 0.0 0.0 0.00 0.00 0.00 64 1010.7
20260508151002 59 170 0.0 0.0 0.00 0.00 0.00 67 1010.7
20260508150500 59 169 0.0 0.0 0.00 0.00 0.00 67 1010.7
20260508150005 59 170 0.0 0.0 0.00 0.00 0.00 69 1010.6
20260508145502 58 170 0.0 0.0 0.00 0.00 0.00 69 1010.7
20260508145002 58 169 0.0 0.0 0.00 0.00 0.00 66 1010.7
20260508144502 58 170 0.0 0.0 0.00 0.00 0.00 67 1010.6
20260508144001 58 170 0.0 0.0 0.00 0.00 0.00 65 1010.5
20260508143502 58 169 0.0 0.0 0.00 0.00 0.00 64 1010.4
20260508143003 58 170 0.0 0.0 0.00 0.00 0.00 61 1010.4
20260508142502 58 170 0.0 0.0 0.00 0.00 0.00 60 1010.3
20260508142001 58 170 0.0 0.0 0.00 0.00 0.00 59 1010.4
20260508141505 58 170 0.0 0.0 0.00 0.00 0.00 58 1010.4
20260508141001 59 170 0.0 0.0 0.00 0.00 0.00 57 1010.3
20260508140502 59 170 0.0 0.0 0.00 0.00 0.00 56 1010.4
20260508140006 59 170 0.0 0.0 0.00 0.00 0.00 54 1010.4
20260508135501 59 170 0.0 0.0 0.00 0.00 0.00 53 1010.3
20260508135001 59 169 0.0 0.0 0.00 0.00 0.00 53 1010.3
20260508134002 58 170 0.0 0.0 0.00 0.00 0.00 57 1010.2
20260508133002 58 170 0.0 0.0 0.00 0.00 0.00 56 1010.2
20260508132502 57 169 0.0 0.0 0.00 0.00 0.00 55 1010.2
20260508132001 57 169 0.0 0.0 0.00 0.00 0.00 54 1010.2
20260508131502 57 170 0.0 0.0 0.00 0.00 0.00 56 1010.1
20260508131001 57 170 0.0 0.0 0.00 0.00 0.00 57 1010.0
20260508130502 57 170 0.0 0.0 0.00 0.00 0.00 59 1010.1
20260508125001 57 170 0.0 0.0 0.00 0.00 0.00 61 1009.9
20260508124503 58 170 0.0 0.0 0.00 0.00 0.00 61 1009.8
20260508124001 58 170 0.0 0.0 0.00 0.00 0.00 60 1009.9
20260508123502 58 170 0.0 0.0 0.00 0.00 0.00 59 1009.9
20260508123002 58 170 0.0 0.0 0.00 0.00 0.00 59 1009.9
20260508122501 58 170 0.0 0.0 0.00 0.00 0.00 61 1009.9
20260508122002 58 170 0.0 0.0 0.00 0.00 0.00 65 1009.9
20260508121502 58 169 0.0 0.0 0.00 0.00 0.00 68 1010.0
20260508121002 58 170 0.0 0.0 0.00 0.00 0.00 75 1009.9
20260508120501 59 169 0.0 0.0 0.00 0.00 0.00 82 1009.8
20260508120006 59 170 0.0 0.0 0.00 0.00 0.00 83 1009.8
20260508115502 59 170 0.0 0.0 0.00 0.00 0.00 83 1009.9
20260508115001 59 170 0.0 0.0 0.00 0.00 0.00 82 1009.9
20260508114503 59 170 0.0 0.0 0.00 0.00 0.00 80 1009.9
20260508114001 59 170 0.0 0.0 0.00 0.00 0.00 77 1009.9
20260508112501 59 170 0.0 0.0 0.00 0.00 0.00 78 1009.9
20260508111503 59 170 0.0 0.0 0.00 0.00 0.00 79 1009.8
20260508111001 59 170 0.0 0.0 0.00 0.00 0.00 79 1009.8
20260508110005 59 170 0.0 0.0 0.00 0.00 0.00 79 1009.8
20260508105501 59 170 0.0 0.0 0.00 0.00 0.00 79 1009.9
20260508104503 59 170 0.0 0.0 0.00 0.00 0.00 82 1010.0
20260508103003 59 170 0.0 0.0 0.00 0.00 0.00 78 1009.9
20260508102501 59 169 0.0 0.0 0.00 0.00 0.00 78 1010.0
20260508102002 60 170 0.0 0.0 0.00 0.00 0.00 80 1010.0
20260508101003 60 170 0.0 0.0 0.00 0.00 0.00 82 1010.0
20260508100501 60 169 0.0 0.0 0.00 0.00 0.00 83 1010.0
20260508100004 61 170 0.0 0.0 0.00 0.00 0.00 82 1009.9
20260508095501 61 170 0.0 0.0 0.00 0.00 0.00 82 1010.0
20260508095005 61 170 0.0 0.0 0.00 0.00 0.00 82 1010.1
20260508094502 61 169 0.0 0.0 0.00 0.00 0.00 81 1010.0
20260508094000 60 169 0.0 0.0 0.00 0.00 0.00 79 1010.0
20260508093502 60 170 0.0 0.0 0.00 0.00 0.00 77 1010.1
20260508093002 60 169 0.0 0.0 0.00 0.00 0.00 76 1010.1
20260508092501 60 169 0.0 0.0 0.00 0.00 0.00 74 1010.1
20260508092000 60 170 0.0 0.0 0.00 0.00 0.00 73 1010.2
20260508091502 60 170 0.0 0.0 0.00 0.00 0.00 72 1010.1
20260508091001 60 170 0.0 0.0 0.00 0.00 0.00 73 1010.1
20260508090501 60 170 0.0 0.0 0.00 0.00 0.00 74 1010.0
20260508090005 60 170 0.0 0.0 0.00 0.00 0.00 75 1010.0
20260508085501 60 170 0.0 0.0 0.00 0.00 0.00 75 1010.1
20260508085000 60 170 0.0 0.0 0.00 0.00 0.00 76 1010.1
20260508084503 60 170 0.0 0.0 0.00 0.00 0.00 77 1010.0
20260508084002 60 170 0.0 0.0 0.00 0.00 0.00 77 1010.1
20260508083501 60 170 0.0 0.0 0.00 0.00 0.00 77 1010.1
20260508083002 60 170 0.0 0.0 0.00 0.00 0.00 78 1010.1
20260508082502 60 170 0.0 0.0 0.00 0.00 0.00 79 1010.1
20260508082001 60 170 0.0 0.0 0.00 0.00 0.00 79 1010.1
20260508081002 59 169 0.0 0.0 0.00 0.00 0.00 80 1010.2
20260508080501 59 170 0.0 0.0 0.00 0.00 0.00 79 1010.3
20260508080004 59 170 0.0 0.0 0.00 0.00 0.00 78 1010.3
20260508075502 59 170 0.0 0.0 0.00 0.00 0.00 79 1010.2
20260508075003 59 170 0.0 0.0 0.00 0.00 0.00 79 1010.2
20260508074504 59 170 0.0 0.0 0.00 0.00 0.00 80 1010.1
20260508074004 59 170 0.0 0.0 0.00 0.00 0.00 81 1010.1
20260508072502 59 169 0.0 0.0 0.00 0.00 0.00 82 1010.2
20260508072004 59 169 0.0 0.0 0.00 0.00 0.00 83 1010.2
20260508071504 59 170 0.0 0.0 0.00 0.00 0.00 84 1010.1
20260508071003 59 169 0.0 0.0 0.00 0.00 0.00 84 1010.2
20260508070502 59 169 0.0 0.0 0.00 0.00 0.00 84 1010.1
20260508065503 59 170 0.0 0.0 0.00 0.00 0.00 85 1010.1
20260508064504 59 169 0.0 0.0 0.00 0.00 0.00 86 1010.1
20260508064002 59 170 0.0 0.0 0.00 0.00 0.00 86 1010.1
20260508063503 59 170 0.0 0.0 0.00 0.00 0.00 87 1010.1
20260508063005 59 170 0.0 0.0 0.00 0.00 0.00 87 1010.1
20260508062502 59 170 0.0 0.0 0.00 0.00 0.00 87 1010.3
20260508062002 59 169 0.0 0.0 0.00 0.00 0.00 87 1010.2
20260508061504 59 170 0.0 0.0 0.00 0.00 0.00 87 1010.3
20260508061005 59 170 0.0 0.0 0.00 0.00 0.00 87 1010.3
20260508060503 59 169 0.0 0.0 0.00 0.00 0.00 87 1010.3
20260508054503 60 170 0.0 0.0 0.00 0.00 0.00 88 1010.4
20260508054002 60 169 0.0 0.0 0.00 0.00 0.00 88 1010.3
20260508053005 60 170 0.0 0.0 0.00 0.00 0.00 87 1010.3
20260508052510 60 169 0.0 0.0 0.00 0.00 0.00 87 1010.4
20260508052002 60 170 0.0 0.0 0.00 0.00 0.00 87 1010.4
20260508051503 60 169 0.0 0.0 0.00 0.00 0.00 87 1010.4
20260508051003 61 170 0.0 0.0 0.00 0.00 0.00 87 1010.4
20260508050503 61 169 0.0 0.0 0.00 0.00 0.00 87 1010.4
20260508050007 61 169 0.0 0.0 0.00 0.00 0.00 87 1010.4
20260508045502 61 170 0.0 0.0 0.00 0.00 0.00 87 1010.6
20260508045002 61 169 0.0 0.0 0.00 0.00 0.00 86 1010.7
20260508044504 61 170 0.0 0.0 0.00 0.00 0.00 86 1010.7
20260508044003 61 170 0.0 0.0 0.00 0.00 0.00 85 1010.6
20260508043503 62 170 0.0 0.0 0.00 0.00 0.00 85 1010.5
20260508043005 62 170 0.0 0.0 0.00 0.00 0.00 85 1010.4
20260508042503 62 170 0.0 0.0 0.00 0.00 0.00 85 1010.3
20260508042002 62 170 0.0 0.0 0.00 0.00 0.00 85 1010.4
20260508041504 62 170 0.0 0.0 0.00 0.00 0.00 84 1010.3
20260508041003 62 169 0.0 0.0 0.00 0.00 0.00 84 1010.3
20260508040502 63 170 0.0 0.0 0.00 0.00 0.00 84 1010.3
20260508040005 63 170 0.0 0.0 0.00 0.00 0.00 83 1010.2
20260508035004 63 170 0.0 0.0 0.00 0.00 0.00 83 1010.1
20260508034002 64 170 0.0 0.0 0.00 0.00 0.00 82 1010.0
20260508032503 65 170 0.0 0.0 0.00 0.00 0.00 80 1009.9
20260508032002 65 170 0.0 0.0 0.00 0.00 0.00 79 1009.9
20260508031504 66 170 0.0 0.0 0.00 0.00 0.00 78 1009.9
20260508031003 66 169 0.0 0.0 0.00 0.00 0.00 77 1009.8
20260508030502 67 170 0.0 0.0 0.00 0.00 0.00 77 1009.8
20260508030006 67 170 0.0 0.0 0.00 0.00 0.00 76 1009.8
20260508025503 67 169 0.0 0.0 0.00 0.00 0.00 75 1009.7
20260508024504 68 170 0.0 0.0 0.00 0.00 0.00 73 1009.7
20260508024003 69 170 0.0 0.0 0.00 0.00 0.00 73 1009.6
20260508023503 69 170 0.0 0.0 0.00 0.00 0.00 72 1009.6
20260508023004 70 169 0.0 0.0 0.00 0.00 0.00 71 1009.5
20260508022502 70 170 0.0 0.0 0.00 0.00 0.00 70 1009.6
20260508022003 71 169 0.0 0.0 0.00 0.00 0.00 68 1009.5
20260508021503 71 169 0.0 0.0 0.00 0.00 0.00 68 1009.4
20260508020502 72 170 0.0 0.0 0.00 0.00 0.00 67 1009.4
20260508020006 72 170 0.0 0.0 0.00 0.00 0.00 66 1009.6
20260508015503 73 169 0.0 0.0 0.00 0.00 0.00 65 1009.5
20260508015002 73 170 0.0 0.0 0.00 0.00 0.00 63 1009.6
20260508014504 73 169 0.0 0.0 0.00 0.00 0.00 63 1009.6
20260508013502 74 170 0.0 0.0 0.00 0.00 0.00 62 1009.6
20260508013006 74 169 0.0 0.0 0.00 0.00 0.00 62 1009.5
20260508012502 74 169 0.0 0.0 0.00 0.00 0.00 59 1009.6
20260508012002 75 169 0.0 0.0 0.00 0.00 0.00 59 1009.6
20260508011504 75 169 0.0 0.0 0.00 0.00 0.00 57 1009.6
20260508011001 75 169 0.0 1.0 0.00 0.00 0.00 56 1009.6
20260508010502 76 170 0.0 1.0 0.00 0.00 0.00 55 1009.5
20260508010006 77 219 0.0 1.0 0.00 0.00 0.00 54 1009.6
20260508005503 77 219 0.0 1.0 0.00 0.00 0.00 55 1009.7
20260508005003 77 245 0.0 1.0 0.00 0.00 0.00 55 1009.8
20260508004503 77 245 0.0 1.0 0.00 0.00 0.00 53 1009.8
20260508004003 77 216 0.0 1.0 0.00 0.00 0.00 53 1009.9
20260508003503 78 140 0.0 1.0 0.00 0.00 0.00 51 1009.9
20260508003005 78 232 0.0 1.0 0.00 0.00 0.00 52 1010.0
20260508002502 77 224 0.0 1.0 0.00 0.00 0.00 57 1010.1
20260508002003 78 240 0.0 1.0 0.00 0.00 0.00 56 1010.1
20260508001002 77 264 0.0 2.0 0.00 0.00 0.00 58 1010.0
20260508000502 78 228 0.0 1.0 0.00 0.00 0.00 57 1010.0
20260508000007 78 129 0.0 2.0 0.00 0.00 0.00 56 1010.0
20260507235002 79 240 0.0 1.0 0.00 0.00 0.00 57 1010.0
20260507234505 78 210 0.0 1.0 0.00 0.00 0.00 58 1010.0